Location: ?????????
(60.4555°N, 46.7601°E)
Time: 21:30:05
(UTC+00:00)

Daily predictions for brighter satellites

Satellite Brightness Start Highest point End
(mag) Time Altitude Azimuth Time Altitude Azimuth Time Altitude Azimuth
ALOS 2 3.4 19:05:32 10° SE 19:09:41 43° ENE 19:13:52 10° N
Spot 4 4.0 19:05:47 10° SSE 19:10:39 74° ENE 19:15:32 10° NNW
Cosmos 1452 Rocket 3.7 19:08:25 10° SSW 19:13:36 58° ESE 19:18:48 10° NE
Aureole 3 Rocket 4.1 19:09:14 10° N 19:13:41 53° ENE 19:19:51 10° SSE
GEOS 3 Rocket 4.0 19:08:37 10° ESE 19:13:52 72° NNE 19:19:13 10° WNW
STARLINK-1228 4.3 19:12:39 10° SW 19:15:15 21° S 19:17:51 10° ESE
Cosmos 1544 Rocket 4.2 19:11:24 10° N 19:15:37 47° ENE 19:19:49 10° SE
Lacrosse 4 Rocket 3.7 19:11:46 10° WNW 19:15:50 32° N 19:19:50 10° NE
NOSS 2-3 (D) 4.0 19:12:04 10° SW 19:16:36 59° SE 19:22:15 10° ENE
SJ 16-02 4.2 19:15:25 10° NNW 19:17:53 14° NNE 19:20:22 10° NE
USA 215 3.9 19:12:10 10° SSE 19:18:13 38° SW 19:24:16 10° WNW
Cosmos 2084 Rocket 3.5 19:14:11 10° WSW 19:18:32 79° SSE 19:22:58 10° ENE
Okean 3 4.4 19:15:08 10° SW 19:19:20 49° WNW 19:23:34 10° N
STARLINK-1234 4.3 19:17:14 10° SW 19:19:35 20° S 19:21:56 10° ESE
Cosmos 1420 Rocket 4.0 19:15:11 10° SSW 19:20:24 79° ESE 19:25:37 10° NE
STARLINK-1212 4.3 19:18:47 10° SW 19:21:02 19° SSE 19:23:17 10° ESE
NOSS 3-2 (C) 4.0 19:14:04 10° WNW 19:21:03 81° SSW 19:29:08 10° SE
STARLINK-1209 4.3 19:18:46 10° SW 19:21:10 20° S 19:23:35 10° ESE
STARLINK-1105 4.3 19:19:15 10° SW 19:21:30 18° SSE 19:23:45 10° ESE
STARLINK-1247 4.3 19:20:07 10° SW 19:22:24 19° SSE 19:24:42 10° ESE
STARLINK-1227 4.3 19:20:36 10° SW 19:22:52 19° SSE 19:25:07 10° ESE
Cosmos 1726 3.9 19:19:57 10° N 19:23:00 23° ENE 19:26:02 10° ESE
Meteor 1-13 Rocket 4.5 19:17:39 10° SSW 19:23:16 76° WNW 19:29:03 10° NNE
Cosmos 1766 3.4 19:19:25 10° NNW 19:23:23 77° WSW 19:27:22 10° S
STARLINK-1226 4.3 19:21:26 10° SW 19:23:43 19° SSE 19:26:00 10° ESE
STARLINK-1215 4.3 19:22:21 10° SW 19:24:39 19° SSE 19:26:57 10° ESE
MTI 3.8 19:22:30 10° NNE 19:25:40 84° WNW 19:28:49 10° SSW
Meteor 1-23 Rocket 4.3 19:20:21 10° S 19:26:04 77° ESE 19:31:44 10° NNE
STARLINK-1217 4.3 19:24:06 10° SW 19:26:25 19° S 19:28:43 10° ESE
Meteor 2-4 Rocket 4.4 19:21:57 10° SW 19:27:12 54° WNW 19:32:29 10° NNE
STARLINK-1229 4.3 19:25:01 10° SW 19:27:19 19° S 19:29:38 10° ESE
Cosmos 1953 3.8 19:24:11 10° N 19:27:46 30° ENE 19:31:20 10° SE
USA 229 DEB 3.8 19:21:05 10° WSW 19:27:48 86° SSE 19:34:59 10° ENE
USA 229 3.8 19:21:12 10° WSW 19:27:55 86° SSE 19:35:05 10° ENE
STARLINK-1270 4.3 19:25:52 10° SW 19:28:11 19° S 19:30:30 10° ESE
SL-27 R/B 2.7 19:24:52 10° NNW 19:28:32 70° ENE 19:32:08 10° SE
Cosmos 371 Rocket 3.3 19:24:03 10° SSW 19:28:53 70° ESE 19:33:46 10° NE
Cosmos 1340 Rocket 4.4 19:25:57 10° N 19:29:27 28° ENE 19:32:58 10° ESE
STARLINK-1189 4.3 19:27:41 10° SW 19:30:01 19° S 19:32:20 10° ESE
STARLINK-1188 4.3 19:28:32 10° SW 19:30:52 19° S 19:33:12 10° ESE
STARLINK-1235 4.2 19:29:07 10° SW 19:31:28 20° S 19:33:49 10° ESE
STARLINK-1187 4.3 19:29:36 10° SW 19:31:55 20° S 19:34:15 10° ESE
STARLINK-1191 4.3 19:31:00 10° SW 19:33:19 19° S 19:35:39 10° ESE
Cosmos 1674 Rocket 3.8 19:29:26 10° SSW 19:33:48 73° WNW 19:38:14 10° NNE
Cosmos 1461 4.4 19:30:50 10° SSE 19:33:59 21° ESE 19:37:15 10° ENE
SL-4 R/B 0.7 19:32:00 10° SSE 19:34:10 64° ENE 19:36:24 10° NNW
STARLINK-1221 4.3 19:31:52 10° SW 19:34:11 19° S 19:36:30 10° ESE
STARLINK-1222 4.3 19:32:45 10° SW 19:35:04 19° S 19:37:23 10° ESE
Cosmos 2297 Rocket 4.1 19:30:22 10° NW 19:35:26 32° NNE 19:40:31 10° E
NOSS 3-1 (C) 3.7 19:29:45 10° WSW 19:35:46 89° NNW 19:42:59 10° ENE
STARLINK-1214 4.3 19:33:39 10° SW 19:35:59 19° S 19:38:19 10° ESE
Cosmos 1758 3.8 19:32:21 10° N 19:36:19 53° ENE 19:40:17 10° SSE
NOSS 3-1 (A) 3.5 19:30:46 10° SW 19:36:42 79° SSE 19:43:49 10° ENE
OPS 8737 3.9 19:33:41 10° SW 19:36:45 69° SSE 19:39:35 10° ENE
Nadezhda 4 Rocket 4.0 19:30:42 10° SSW 19:36:53 89° WNW 19:43:03 10° NNE
ATLAS 3B R/B 2.8 19:31:05 10° WNW 19:37:49 82° NNE 19:44:44 10° ESE
Cosmos 1378 Rocket 3.7 19:36:53 10° SSW 19:41:19 78° WNW 19:45:44 10° NNE
CENTAUR R/B 3.1 19:34:02 10° WNW 19:41:32 78° SW 19:50:06 10° SE
COSMOS 2487 4.1 19:38:43 10° NNW 19:41:51 30° NE 19:44:58 10° ESE
Cosmos 1733 3.5 19:39:43 10° NNW 19:43:32 62° W 19:47:18 10° S
Cosmos 1707 4.4 19:44:07 10° SE 19:47:11 22° E 19:50:16 10° NE
NOSS 2-3 (C) 4.0 19:42:40 10° SW 19:47:22 79° SSE 19:53:22 10° ENE
Cosmos 2297 4.1 19:44:41 10° S 19:50:07 48° ESE 19:55:37 10° NE
Cosmos 1975 Rocket 3.3 19:46:53 10° S 19:51:17 60° E 19:55:39 10° NNE
SL-16 R/B 4.5 19:47:12 10° E 19:52:04 25° NE 19:56:57 10° NNW
Cosmos 2082 Rocket 4.0 19:52:28 10° NW 19:56:39 21° WSW 20:00:50 10° SSW
Cosmos 1503 Rocket 4.2 19:52:49 10° NNW 19:58:07 77° NE 20:03:27 10° SE
SeaSat 1 2.5 19:57:09 10° NE 20:02:05 64° SE 20:06:59 10° SSW
ERBS 3.4 20:03:06 10° SSW 20:05:51 24° SSE 20:08:37 10° E
Cosmos 1470 2.8 20:02:14 10° NNW 20:06:09 81° WSW 20:09:56 11° S
Cosmos 1242 Rocket 3.4 20:03:35 11° SSE 20:06:55 38° E 20:10:22 10° NNE
NOSS 3-2 (A) 4.3 20:00:09 10° WNW 20:07:01 51° SW 20:14:49 10° SSE
ATLAS 2AS CENTAUR R/B 4.5 20:01:53 10° SSE 20:07:09 20° ESE 20:12:23 10° ENE
Cosmos 1867 3.6 20:01:39 10° WNW 20:07:09 82° SW 20:12:37 10° SE
Cosmos 1110 Rocket 4.1 20:04:10 10° SSW 20:09:18 65° ESE 20:14:27 10° NE
Cosmos 2227 Rocket 3.9 20:06:05 10° NW 20:11:20 36° NNE 20:16:35 10° E
Cosmos 968 Rocket 3.5 20:07:33 10° NW 20:12:46 74° WSW 20:17:54 10° SSE
Cosmos 1354 Rocket 4.1 20:07:38 10° NNW 20:12:57 85° ENE 20:18:17 10° SSE
USA 238 DEB 4.3 20:07:32 10° WNW 20:14:14 46° SW 20:21:11 10° SSE
USA 238 4.3 20:07:37 10° WNW 20:14:20 47° SW 20:21:18 10° SSE
EO 1 Del DPAF 3.3 20:10:32 10° NNE 20:14:20 80° WNW 20:18:07 10° SSW
Cosmos 1092 Rocket 4.1 20:08:38 10° SSW 20:14:47 79° WNW 20:21:00 10° NNE
STARLINK-1201 4.5 20:12:51 10° SW 20:16:24 28° S 20:19:58 10° ESE
Cosmos 1455 Rocket 3.7 20:13:31 10° NNW 20:17:44 47° W 20:21:54 10° SSW
Cosmos 304 Rocket 3.8 20:13:05 10° SSW 20:17:53 85° ESE 20:22:43 10° NNE
Cosmos 2369 Rocket 3.1 20:15:28 10° S 20:20:28 33° ESE 20:25:28 10° NE
Cosmos 1486 Rocket 4.3 20:15:51 10° NW 20:21:05 57° WSW 20:26:13 10° S
STARLINK-1206 4.5 20:17:46 10° SW 20:21:21 28° S 20:24:55 10° ESE
Cosmos 332 Rocket 4.1 20:16:45 10° SW 20:21:40 71° NW 20:26:36 10° NNE
Okean 2 3.6 20:18:11 10° SSW 20:22:18 74° WNW 20:26:30 10° NNE
Aureole 2 Rocket 2.0 20:19:43 10° SSW 20:22:53 83° ESE 20:25:54 10° NE
Meteor 1-21 4.3 20:19:00 10° S 20:24:37 70° ESE 20:30:14 10° NNE
Helios 1A 3.0 20:20:44 10° SSE 20:24:51 80° WSW 20:29:04 10° NNW
Cosmos 1908 4.2 20:21:55 10° N 20:25:36 42° ENE 20:29:15 10° SE
STARLINK-1205 4.5 20:22:42 10° SW 20:26:17 28° S 20:29:52 10° ESE
STARLINK-1218 4.4 20:27:37 10° SW 20:31:13 29° S 20:34:49 10° ESE
Cosmos 1943 Rocket 2.6 20:26:15 10° S 20:31:32 46° ESE 20:36:52 10° NE
Cosmos 1378 4.2 20:29:00 10° SW 20:32:33 41° WNW 20:36:08 10° N
Cosmos 1331 Rocket 4.0 20:27:57 10° SSW 20:33:08 83° ESE 20:38:22 10° NE
Cosmos 1842 3.4 20:30:23 10° SSW 20:34:18 71° WNW 20:38:14 10° NNE
Cosmos 1025 Rocket 3.3 20:31:50 11° S 20:35:52 59° E 20:40:07 10° NNE
STARLINK-1254 4.4 20:32:34 10° SW 20:36:11 29° S 20:39:46 10° ESE
Helios 1B rocket 4.0 20:32:59 10° NE 20:36:24 24° E 20:39:48 10° SSE
S3M 4.1 20:31:00 10° NNW 20:37:08 73° W 20:43:13 10° S
Cosmos 1302 Rocket 4.3 20:32:12 10° SSW 20:37:23 58° ESE 20:42:37 10° NE
Cosmos 2278 Rocket 3.1 20:32:46 10° WSW 20:38:22 54° NW 20:43:58 10° NE
Thor Agena Rocket 4.0 20:35:42 10° NNE 20:40:58 63° WNW 20:46:12 10° SW
STARLINK-1231 4.4 20:37:31 10° SW 20:41:08 29° S 20:44:45 10° ESE
Cosmos 1655 Rocket 4.1 20:37:39 10° S 20:43:48 71° E 20:50:03 10° NNE
Terra 4.4 20:43:27 10° W 20:44:40 11° WNW 20:45:53 10° WNW
STARLINK-1232 4.4 20:42:27 10° WSW 20:46:05 29° S 20:49:42 10° ESE
ALOS 2 3.5 20:41:59 10° SSW 20:46:07 39° W 20:50:16 10° NNW
NOSS 2-3 (E) 4.4 20:42:25 10° WSW 20:47:20 75° NNW 20:53:40 10° ENE
NOSS 8 (F) 4.3 20:45:32 10° SW 20:48:31 56° SE 20:51:45 10° ENE
Landsat 4 4.1 20:46:06 10° NNE 20:49:45 50° ESE 20:53:09 11° S
Cosmos 1536 Rocket 3.6 20:46:41 11° S 20:50:50 71° E 20:55:11 10° NNE
STARLINK-1208 4.4 20:47:23 10° WSW 20:51:00 29° S 20:54:38 10° ESE
STARLINK-1228 4.3 20:48:34 10° WSW 20:51:10 21° S 20:53:44 10° SE
Cosmos 292 Rocket 4.3 20:46:42 11° S 20:51:13 47° ESE 20:55:53 10° NE
GEOS 3 Rocket 3.8 20:46:58 10° SE 20:52:06 55° SW 20:57:21 10° WNW
Cosmos 2058 Rocket 4.0 20:49:37 10° N 20:53:53 46° ENE 20:58:09 10° SE
STARLINK-1234 4.3 20:52:24 10° WSW 20:54:43 19° S 20:57:02 10° SE
Lacrosse 4 Rocket 3.4 20:51:21 10° NW 20:55:29 36° NNE 20:59:32 10° E
STARLINK-1271 4.4 20:52:21 10° WSW 20:55:57 29° S 20:59:35 10° ESE
STARLINK-1212 4.2 20:53:48 10° WSW 20:56:09 20° S 20:58:31 10° SE
STARLINK-1209 4.3 20:54:07 10° WSW 20:56:28 19° SSW 20:58:47 10° SE
STARLINK-1105 4.2 20:54:17 10° WSW 20:56:38 20° S 20:58:58 10° SE
Cosmos 2228 3.1 20:53:08 10° NNW 20:57:27 75° ENE 21:01:42 10° SSE
STARLINK-1247 4.2 20:55:10 10° WSW 20:57:33 20° S 20:59:55 10° SE
SJ 16-02 3.3 20:53:58 10° NNW 20:57:54 30° NE 21:01:49 10° ESE
STARLINK-1227 4.2 20:55:39 10° WSW 20:58:00 20° S 21:00:19 10° SE
Cosmos 2084 Rocket 4.1 20:53:51 10° W 20:58:13 64° N 21:02:40 10° ENE
Cosmos 1726 2.4 20:54:52 10° NNW 20:58:31 56° W 21:01:55 11° S
STARLINK-1226 4.2 20:56:30 10° WSW 20:58:51 20° S 21:01:12 10° SE
STARLINK-1215 4.2 20:57:25 10° WSW 20:59:47 20° S 21:02:09 10° SE
STARLINK-1154 4.4 20:57:17 10° WSW 21:00:54 29° S 21:04:32 10° ESE
STARLINK-1217 4.2 20:59:11 10° WSW 21:01:32 20° S 21:03:53 10° SE
STARLINK-1229 4.3 21:00:06 10° WSW 21:02:28 20° S 21:04:49 10° SE
SL-27 R/B 4.3 21:00:34 10° NW 21:03:16 20° WSW 21:05:56 10° SSW
STARLINK-1270 4.3 21:00:58 10° WSW 21:03:19 20° S 21:05:40 10° SE
Cosmos 1953 2.9 21:00:29 10° NNW 21:04:23 48° W 21:08:04 11° S
Cosmos 2219 3.8 20:58:54 10° NW 21:04:34 60° NE 21:10:11 10° ESE
STARLINK-1189 4.3 21:02:48 10° WSW 21:05:08 19° S 21:07:29 10° SE
STARLINK-1197 4.4 21:02:14 10° WSW 21:05:51 29° S 21:09:29 10° ESE
STARLINK-1188 4.3 21:03:40 10° WSW 21:06:01 19° S 21:08:20 10° SE
Cosmos 1340 Rocket 3.2 21:02:14 10° NNW 21:06:11 54° W 21:09:57 11° S
STARLINK-1235 4.3 21:04:22 10° WSW 21:06:36 18° SSW 21:08:50 10° SSE
STARLINK-1187 4.3 21:04:47 10° WSW 21:07:03 19° SSW 21:09:19 10° SE
STARLINK-1191 4.3 21:06:10 10° WSW 21:08:27 19° S 21:10:45 10° SE
STARLINK-1221 4.3 21:07:02 10° WSW 21:09:19 19° S 21:11:37 10° SE
Cosmos 1992 Rocket 4.5 21:05:01 11° S 21:09:53 48° ESE 21:14:54 10° NE
STARLINK-1222 4.3 21:07:54 10° WSW 21:10:12 19° S 21:12:29 10° SE
Cosmos 1300 3.7 21:06:46 10° N 21:10:27 44° ENE 21:14:08 10° SE
STARLINK-1198 4.4 21:07:09 10° WSW 21:10:46 29° S 21:14:24 10° ESE
STARLINK-1214 4.3 21:08:50 10° WSW 21:11:07 19° S 21:13:24 10° SE
Cosmos 1461 3.0 21:08:12 10° SW 21:12:27 72° SE 21:16:58 10° ENE
NOSS 2-2 (D) 3.6 21:10:24 10° SW 21:14:02 51° SE 21:18:28 10° ENE
Cosmos 1271 Rocket 2.9 21:11:28 10° SSW 21:15:18 69° WNW 21:19:15 10° NNE
STARLINK-1199 4.4 21:12:08 10° WSW 21:15:45 29° S 21:19:22 10° ESE
Cosmos 1656 Rocket 4.4 21:11:09 10° S 21:16:21 41° ESE 21:21:34 10° NE
COSMOS 2487 2.8 21:13:42 10° NW 21:17:04 47° WSW 21:20:20 11° S
NOSS 8 (H) 4.2 21:14:39 10° SW 21:17:39 61° SSE 21:21:01 10° ENE
In-Cosmos 22 4.2 21:12:28 10° S 21:17:41 72° ESE 21:22:58 10° NNE
USA 229 DEB 4.2 21:12:19 10° W 21:19:09 70° N 21:26:28 10° E
USA 229 4.2 21:12:26 10° W 21:19:16 70° N 21:26:33 10° E
Cosmos 1606 Rocket 3.6 21:15:55 10° NNW 21:20:15 73° W 21:24:34 10° S
Cosmos 2297 Rocket 2.8 21:14:50 10° NW 21:20:29 63° NE 21:26:07 10° ESE
STARLINK-1210 4.4 21:17:04 10° WSW 21:20:41 29° S 21:24:17 10° SE
CZ-4 R/B 4.2 21:17:25 10° NNE 21:22:17 59° ESE 21:27:00 10° S
Cosmos 1707 3.1 21:18:53 10° SSW 21:22:45 60° WNW 21:26:39 10° N
Cosmos 2292 Rocket 3.2 21:18:43 11° S 21:22:54 89° ESE 21:26:18 10° NNE
STARLINK-1219 4.4 21:22:01 10° WSW 21:25:37 29° S 21:29:14 10° SE
Timation 2 Rocket 4.0 21:19:21 10° NW 21:25:52 74° SW 21:32:03 10° SSE
ATLAS CENTAUR R/B 1.7 21:24:40 10° WSW 21:26:26 26° SSW 21:29:09 10° SE
NOSS 3-1 (C) 4.2 21:20:43 10° W 21:27:05 70° N 21:34:44 10° E
NOSS 3-1 (A) 4.1 21:21:37 10° W 21:27:55 71° N 21:35:29 10° E
NOSS 3-4 (A) 4.4 21:22:45 10° S 21:28:00 32° ESE 21:33:38 10° ENE
NOSS 3-4 (C) 4.4 21:22:51 10° S 21:28:07 32° ESE 21:33:45 10° ENE
ATLAS 3B R/B 2.9 21:21:52 10° WNW 21:28:19 51° SW 21:34:58 10° SSE
Cosmos 1626 3.6 21:26:05 10° SSE 21:29:18 29° E 21:32:33 10° NNE
Aureole 3 4.0 21:25:46 10° NNW 21:29:41 39° W 21:32:49 11° SSW
STARLINK-1211 4.5 21:26:58 10° WSW 21:30:33 29° S 21:34:09 10° SE
CENTAUR R/B 3.8 21:24:45 10° WNW 21:31:45 37° WSW 21:39:26 10° S
NOSS 2-2 (E) 3.5 21:29:08 10° SW 21:32:58 71° SSE 21:37:48 10° ENE
MOZ.5/SAFIR/RUBIN 5/SL-8 4.2 21:28:35 10° SE 21:33:09 61° ENE 21:37:45 10° NNW
PSLV R/B 3.9 21:29:05 10° NNE 21:33:46 66° ESE 21:38:16 10° S
Cosmos 2297 4.3 21:28:40 10° WSW 21:34:18 59° NW 21:40:00 10° NE
SL-16 R/B 2.9 21:28:44 10° SE 21:34:50 67° ENE 21:40:58 10° NNW
Cosmos 1777 Rocket 4.1 21:30:08 10° NW 21:35:19 65° WSW 21:40:30 10° SSE
STARLINK-1245 4.5 21:31:56 10° WSW 21:35:30 28° S 21:39:06 10° SE
Cosmos 2263 Rocket 4.3 21:30:33 10° NW 21:35:39 33° NNE 21:40:43 10° E
Cosmos 2266 Rocket 4.1 21:31:46 10° SSW 21:37:53 77° WNW 21:43:59 10° NNE
SeaSat 1 3.6 21:34:50 10° NE 21:39:32 45° NW 21:44:14 10° WSW
STARLINK-1233 4.5 21:36:53 10° WSW 21:40:26 28° S 21:44:01 10° SE
SL-4 R/B 4.4 21:38:50 10° SSE 21:40:35 12° SE 21:42:21 10° ESE
ERBS 2.6 21:38:30 10° WSW 21:41:42 44° S 21:44:54 10° E
Cosmos 1242 Rocket 4.0 21:38:31 10° SW 21:41:52 32° WNW 21:45:14 10° N
STARLINK-1204 4.5 21:41:51 10° WSW 21:45:23 28° S 21:48:57 10° SE
NOSS 8 (E) 4.4 21:43:00 10° WSW 21:46:03 76° NNW 21:49:31 10° ENE
Cosmos 1674 2.7 21:43:44 10° SSW 21:47:27 88° E 21:51:16 10° NNE
ATLAS CENTAUR R/B 3.1 21:45:01 10° S 21:48:11 20° ESE 21:51:13 10° ENE
Spot 1 4.4 21:44:46 10° S 21:49:27 71° WSW 21:54:26 10° NNW
Cosmos 1455 3.9 21:49:27 10° N 21:52:53 32° ENE 21:56:16 10° SE
STARLINK-1239 4.5 21:49:33 10° SW 21:53:09 29° S 21:56:45 10° ESE
NOSS 2-2 (C) 3.4 21:51:55 10° WSW 21:55:43 80° SSE 22:00:32 10° ENE
Cosmos 2227 Rocket 2.4 21:50:25 10° NW 21:56:09 81° NE 22:01:51 10° SE
ATLAS 2AS CENTAUR R/B 3.4 21:48:59 10° SSW 21:56:41 52° SE 22:04:11 10° ENE
STARLINK-1240 4.5 21:54:29 10° SW 21:58:07 29° S 22:01:43 10° ESE
CZ-2D R/B 3.4 21:56:24 10° NNE 22:01:13 34° E 22:05:57 10° SSE
Cosmos 1908 4.4 21:57:58 10° NNW 22:01:20 30° W 22:04:41 10° SSW
STARLINK-1216 4.5 21:59:25 10° WSW 22:03:03 29° S 22:06:39 10° ESE
Meteor 1-24 Rocket 3.9 21:58:10 10° S 22:03:24 63° E 22:08:48 10° NNE
Cosmos 2369 Rocket 2.4 21:58:26 10° SW 22:04:08 78° NW 22:09:50 10° NE
ADEOS II 4.3 22:00:27 10° NE 22:04:10 19° E 22:07:52 10° SE
Cosmos 1892 Rocket 3.7 22:00:46 10° S 22:05:11 80° ESE 22:09:36 10° NNE
STARLINK-1237 4.5 22:04:22 10° WSW 22:08:00 29° S 22:11:37 10° ESE
Cosmos 1356 Rocket 3.4 22:04:00 10° NNW 22:08:08 86° WSW 22:12:19 10° SSE
Cosmos 1726 Rocket 4.4 22:04:19 10° NNW 22:08:19 37° W 22:12:16 10° SSW
Resurs 1-4 Rocket 3.1 22:06:34 10° NNE 22:11:33 40° E 22:16:31 10° SSE
RESURS DK-1 3.9 22:08:18 10° S 22:11:42 25° ESE 22:15:06 10° ENE
Helios 1B rocket 2.7 22:07:56 10° NNE 22:12:02 64° WNW 22:16:08 10° SSW
STARLINK-1202 4.5 22:09:20 10° WSW 22:12:58 29° S 22:16:34 10° ESE
Cosmos 1943 Rocket 2.7 22:09:44 10° WSW 22:15:15 59° NW 22:20:51 10° NE
Meteor 2-5 Rocket 3.8 22:10:44 10° SSW 22:16:17 90° WNW 22:21:57 10° NNE
Cosmos 2285 Rocket 4.5 22:14:02 10° NNW 22:20:29 70° NE 22:26:50 10° SE
STARLINK-1246 4.5 22:19:12 10° WSW 22:22:50 29° S 22:26:27 10° ESE
Cosmos 2278 Rocket 4.2 22:18:34 10° WNW 22:23:35 31° NNW 22:28:37 10° NE
KORONAS-FOTON 4.4 22:20:34 10° SW 22:24:16 48° WNW 22:28:02 10° N
Cosmos 1898 Rocket 3.7 22:19:10 10° NNW 22:24:34 87° NE 22:29:55 10° SSE
CZ-4C R/B 3.7 22:20:23 10° S 22:24:36 63° WSW 22:28:59 10° NNW
ATLAS 5 CENTAUR R/B 1.0 22:24:07 10° SW 22:26:19 42° SSE 22:28:24 10° E
Uosat 12 SS-18 rocket 4.1 22:22:52 10° WNW 22:27:21 87° NNE 22:31:41 10° ESE
STARLINK-1224 4.5 22:24:09 10° WSW 22:27:46 29° S 22:31:23 10° ESE
